58P/Jackson-Neujmin (2020)

Japanese version
Home page
Updated on April 4, 2021

---------------------------------------------------------------------

* Profile

* Pictures

* Orbital Elements

Epoch 2020 May 31.0 TT = JDT 2459000.5
T 2020 May 27.43955 TT                                  Rudenko
q   1.3774662            (2000.0)            P               Q
n   0.11948177     Peri.  200.45050     +0.99671728     -0.00057382
a   4.0825824      Node   159.08307     +0.01624712     +0.98105019
e   0.6625993      Incl.   13.10679     -0.07931392     +0.19375291
P   8.25
From 501 observations 1970 Oct. 1-2020 Nov. 23, mean residual 0".9.
     Nongravitational parameters A1 = +0.09, A2 = +0.1398.

* Finding Charts

* Magnitudes Graph

        m1 = 4.0 + 5 log d + 35 log r(t + 15)

---------------------------------------------------------------------

The orbital elements are published on M.P.E.C. 2021-F20.
The charts are made with StellaNavigator Ver.8 (AstroArts).
The magnitudes graphs are made with Comet for Windows.

---------------------------------------------------------------------

Copyright(C) Seiichi Yoshida (comet@aerith.net). All rights reserved.